Погода в Шебалине

Россия / Республика Алтай     51°17′31″N   85°40′27″E
темп.,
°C
ветер,
м/с
пор.,
м/с
влажн.,
%
обл.,
%
осадки,
мм/ч
давл.,
гПа
погр.,
м
20 января, ср
ср2001:00−13зсз1194100 0.1 102220
04:00−13зсз0191100 0.0 102221
07:00−13ю1191100 0.0 102321
10:00−11ю1180100 0.0 102421
13:00−6ссв0078100 0.0 1023134
16:00−5св1186100 0.0 1022109
19:00−7ю2286100 0.0 102427
22:00−7ююз2286100 0.0 102339
21 января, чт
чт2101:00−6ююз3385100 0.0 102283
04:00−6ююз3585100 0.1 1021192
07:00−6ююз3682100 0.1 1022209
10:00−6ююз3781100 0.0 1022242
13:00−2ю2975100 0.0 1020844
16:00−3ю2886100 0.1 10181041
19:00−7ю2289100 0.1 101828
22:00−7ю2287100 0.0 101635
22 января, пт
пт2201:00−7ююз2285100 0.0 101438
04:00−6ю2383100 0.0 101261
07:00−7ю3381100 0.0 101061
10:00−6ю3380100 0.0 100977
13:00−1ююв2574100 0.0 1006270
16:00−1ююв2278100 0.0 100476
19:00−5зюз1185100 0.0 100529
22:00−4юз21587100 0.2 10081228
23 января, сб
сб2301:00−7з2695100 1.3 1014294
04:00−13с2397100 2.5 1021200
07:00−15ссв1297100 3.7 1025151
10:00−15ююз1296100 0.3 1030181
13:00−12юз51368100 0.3 10301269
16:00−13юз51369100 0.0 10301310
19:00−17ююз3880100 0.0 1033290
22:00−18ююз3781100 0.0 1035308
24 января, вс
вс2401:00−19ююз3979100 0.0 1035366
04:00−20ююз3977100 0.0 1036326
07:00−20ю31475100 0.0 1037681
10:00−19ю31376100 0.0 1037683
13:00−16ююз51266100 0.0 10351430
16:00−16юз51170100 0.0 10351503
19:00−18ююз31377100 0.0 1038703
22:00−19ююз2883100 0.0 1039262